User: anonymous   Login
Location: Borea
(45.6167°N, 23.0167°E)
Time: 00:58:34
(UTC+00:00)
Language:

Cosmos 2360 Rocket - Orbit

View from above orbital plane
View from above orbital plane
View from above satellite
View from above satellite

Ground track
Ground track

The orbit data is extracted from the following two-line orbital elements,

1 25407U 98045B   23153.43543377  .00000120  00000-0  85134-4 0  9992
2 25407  71.0097 147.7423 0005901 140.1066 220.0492 14.15917184283941
Epoch (UTC): 02 June 2023 10:27:01
Eccentricity: 0.0005901
inclination: 71.0097°
perigee height: 835 km
apogee height: 843 km
right ascension of ascending node: 147.7423°
argument of perigee: 140.1066°
revolutions per day: 14.15917184
mean anomaly at epoch: 220.0492°
orbit number at epoch: 28394

The dashed part of the orbit path shows where the satellite is in the earth's shadow,  

DLR